Cloud_Cover
0 0 5 94 68 3 4 5 95 73 34 5 5 6 97 96 100 100 100 99 100 60 37 56 5 0 0 5 5 92 9 5 5 5 13 50 91 23 5 6 79 5 4 27
0 0 3 0 0 4 7 5 26 5 5 5 97 81 94 62 100 100 100 92 89 95 9 98 58 0 0 1 5 76 53 5 11 5 7 5 5 14 9 7 4 0 3 47
0 0 0 0 4 35 7 52 60 29 5 5 41 83 89 100 100 98 100 100 100 96 50 100 82 5 0 0 0 36 90 74 33 5 5 5 4 23 26 31 0 6 38 4
0 0 0 0 0 5 89 5 15 28 23 99 3 100 100 95 100 100 89 79 100 94 19 80 100 71 0 0 0 1 95 99 60 5 4 5 8 71 16 5 0 4 5 9
0 0 0 0 0 0 4 0 8 75 100 6 45 51 81 79 95 64 100 89 100 100 39 62 100 61 25 0 0 0 3 7 61 31 26 28 33 72 6 1 0 5 8 18
0 0 0 14 3 0 0 0 0 1 40 69 14 4 74 61 25 50 90 99 100 100 66 91 92 84 5 0 1 4 0 5 28 5 78 56 0 4 49 0 5 11 99 100
0 0 0 0 0 0 0 65 95 92 99 100 9 1 100 2 95 56 68 100 100 100 99 80 49 100 84 0 0 4 0 0 0 0 0 37 5 5 0 5 5 40 65 7
1 0 0 0 4 5 0 80 100 100 100 81 0 17 95 0 5 7 100 100 100 100 100 100 96 100 98 10 0 3 2 0 0 0 0 0 85 26 4 2 79 1 26 6
3 40 0 0 0 1 22 1 17 5 2 0 34 5 14 0 0 3 6 100 100 100 98 100 100 97 100 99 5 4 4 0 0 0 0 0 0 6 26 25 5 64 5 22
4 51 0 0 0 0 2 11 4 3 62 15 45 2 19 1 0 2 4 10 59 100 75 100 100 88 78 19 6 1 2 3 0 2 2 0 0 4 5 6 9 44 12 12
1 8 10 0 1 5 0 3 0 37 14 90 76 30 0 0 0 0 0 2 10 7 95 50 99 100 100 100 46 0 0 5 2 0 0 0 1 4 6 60 80 96 96 40
0 40 88 91 0 0 0 16 48 56 70 5 22 88 0 0 0 0 0 0 1 89 75 77 90 67 96 100 98 5 0 2 5 2 0 0 0 0 3 5 7 33 44 37
0 13 82 25 0 0 0 4 5 22 52 75 38 100 2 0 0 0 0 0 1 0 17 100 100 62 83 99 100 37 8 4 5 1 0 0 0 0 0 0 0 0 0 1
5 94 77 100 90 21 8 0 0 1 34 92 50 65 4 0 0 0 0 0 0 2 4 52 100 100 100 100 100 100 26 14 5 5 0 0 0 0 0 0 0 0 0 0
4 25 13 16 0 0 0 0 0 0 1 10 84 65 5 2 0 0 0 0 0 0 0 9 100 100 100 100 98 100 90 61 6 4 0 0 0 0 0 0 0 0 0 0
8 52 5 5 0 0 0 0 0 0 0 0 0 0 0 0 0 0 0 0 0 0 0 0 39 100 100 100 100 100 99 100 62 5 22 19 1 15 1 10 12 5 1 0
5 22 5 7 1 0 0 0 0 0 0 0 0 4 0 0 0 0 0 0 0 0 0 0 0 98 100 100 100 100 100 100 84 70 18 10 10 34 100 46 4 7 21 2
18 5 5 52 0 0 0 0 0 0 0 0 0 0 0 0 0 0 0 0 0 0 0 0 0 1 100 100 100 99 99 100 64 28 76 5 76 79 100 81 66 13 28 39
18 8 5 4 4 2 0 0 0 0 0 0 0 0 0 0 0 0 0 0 0 0 0 0 0 0 1 100 100 100 100 82 100 100 99 29 9 38 94 93 47 32 36 32
99 13 7 6 50 34 5 5 4 0 0 0 0 0 0 0 0 48 0 0 0 0 0 0 0 0 0 1 97 100 100 100 100 100 86 76 62 97 64 80 65 25 90 24
92 5 5 87 31 37 2 5 5 2 3 0 0 0 0 0 1 0 0 0 0 0 0 0 0 0 0 0 15 92 100 100 100 97 98 100 100 100 74 74 98 75 60 17
100 68 5 58 95 50 5 4 0 1 0 0 0 0 0 0 0 0 0 0 0 0 0 0 0 0 0 0 4 100 100 100 100 100 58 60 100 100 82 91 67 100 82 34
100 91 46 7 97 35 5 2 0 0 0 0 0 0 0 0 0 0 0 0 0 0 0 0 0 0 0 0 17 100 100 94 100 100 100 99 100 100 100 100 100 100 100 100
50 94 63 75 71 44 5 5 5 1 0 0 0 0 0 0 0 0 0 0 0 0 0 0 0 0 0 0 93 94 71 100 74 77 100 100 100 100 100 100 100 100 100 100
26 97 48 64 86 79 30 75 5 0 0 0 0 0 0 0 0 0 0 0 0 0 0 0 0 0 0 15 100 85 90 72 85 100 100 100 100 99 100 100 100 100 100 100
100 93 100 94 100 98 84 56 5 2 2 4 0 5 5 0 0 0 0 0 0 1 0 0 0 0 33 100 97 83 98 82 100 100 100 100 99 100 100 100 100 100 100 100